contact:dominique.lefevre@mio.osupytheas.fr, maurice.libes@osupytheas.fr, didier.mallarino@osupytheas.fr
Project:EMSO http://www.emso-fr.org/EMSO-France
Depth: 2436.0 m
Title:EMSO Ligure Ouest : Data MII capteur CSTAR
DateTime,Latitude,Longitude,Instrument_Serial,Reference_Counts,Signal_Counts,Corrected_Signal_raw_counts,Calculated_Beam_c_inverse_meters,Internal_thermistor_counts
DateTime,Latitude,Longitude,Instrument_Serial,Reference_Counts,Signal_Counts,Corrected_Signal_raw_counts,Calculated_Beam_c_inverse_meters,Internal_thermistor_counts
2021-01-26T00:01:41,42.805,6.029,CST-1368DR,5585,7811,15030,0.153,551
2021-01-26T00:04:43,42.805,6.029,CST-1368DR,5585,7811,15030,0.153,551
2021-01-26T00:07:44,42.805,6.029,CST-1368DR,5585,7811,15030,0.153,551
2021-01-26T00:10:46,42.805,6.029,CST-1368DR,5585,7811,15031,0.153,551
2021-01-26T00:13:47,42.805,6.029,CST-1368DR,5585,7810,15029,0.153,551
2021-01-26T00:16:49,42.805,6.029,CST-1368DR,5585,7811,15031,0.153,551
2021-01-26T00:19:51,42.805,6.029,CST-1368DR,5585,7811,15031,0.153,551
2021-01-26T00:22:52,42.805,6.029,CST-1368DR,5585,7811,15031,0.153,551
2021-01-26T00:25:54,42.805,6.029,CST-1368DR,5585,7811,15031,0.153,551
2021-01-26T00:28:55,42.805,6.029,CST-1368DR,5585,7811,15031,0.153,551
2021-01-26T00:31:57,42.805,6.029,CST-1368DR,5585,7811,15031,0.153,551
2021-01-26T00:34:58,42.805,6.029,CST-1368DR,5585,7811,15030,0.153,551
2021-01-26T00:38:00,42.805,6.029,CST-1368DR,5585,7810,15029,0.153,551
2021-01-26T00:41:02,42.805,6.029,CST-1368DR,5585,7811,15031,0.153,551
2021-01-26T00:44:03,42.805,6.029,CST-1368DR,5585,7811,15031,0.153,551
2021-01-26T00:47:05,42.805,6.029,CST-1368DR,5585,7810,15029,0.153,551
2021-01-26T00:50:06,42.805,6.029,CST-1368DR,5585,7811,15030,0.153,551
2021-01-26T00:53:08,42.805,6.029,CST-1368DR,5585,7810,15029,0.153,551
2021-01-26T00:56:10,42.805,6.029,CST-1368DR,5585,7811,15030,0.153,551
2021-01-26T00:59:11,42.805,6.029,CST-1368DR,5585,7811,15030,0.153,551
2021-01-26T01:02:13,42.805,6.029,CST-1368DR,5585,7811,15030,0.153,551
2021-01-26T01:05:14,42.805,6.029,CST-1368DR,5585,7806,15020,0.156,551
2021-01-26T01:08:16,42.805,6.029,CST-1368DR,5585,7811,15030,0.153,551
2021-01-26T01:11:17,42.805,6.029,CST-1368DR,5585,7810,15029,0.153,551
2021-01-26T01:14:19,42.805,6.029,CST-1368DR,5585,7811,15030,0.153,551
2021-01-26T01:17:21,42.805,6.029,CST-1368DR,5585,7811,15030,0.153,551
2021-01-26T01:20:22,42.805,6.029,CST-1368DR,5585,7810,15029,0.153,551
2021-01-26T01:23:24,42.805,6.029,CST-1368DR,5585,7810,15028,0.154,551
2021-01-26T01:26:25,42.805,6.029,CST-1368DR,5584,7809,15028,0.154,551
2021-01-26T01:29:27,42.805,6.029,CST-1368DR,5584,7811,15033,0.152,551
2021-01-26T01:32:28,42.805,6.029,CST-1368DR,5585,7811,15030,0.153,551
2021-01-26T01:35:30,42.805,6.029,CST-1368DR,5585,7810,15029,0.153,551
2021-01-26T01:38:32,42.805,6.029,CST-1368DR,5585,7810,15029,0.153,551
2021-01-26T01:41:33,42.805,6.029,CST-1368DR,5585,7810,15028,0.154,551
2021-01-26T01:44:35,42.805,6.029,CST-1368DR,5584,7811,15033,0.152,550
2021-01-26T01:47:36,42.805,6.029,CST-1368DR,5584,7811,15033,0.152,551
2021-01-26T01:50:38,42.805,6.029,CST-1368DR,5585,7811,15030,0.153,551
2021-01-26T01:53:40,42.805,6.029,CST-1368DR,5584,7811,15032,0.152,551
2021-01-26T01:56:41,42.805,6.029,CST-1368DR,5584,7801,15014,0.157,551
2021-01-26T01:59:43,42.805,6.029,CST-1368DR,5584,7810,15031,0.153,551
2021-01-26T02:02:44,42.805,6.029,CST-1368DR,5584,7810,15030,0.153,551
2021-01-26T02:05:46,42.805,6.029,CST-1368DR,5584,7810,15032,0.152,551
2021-01-26T02:08:47,42.805,6.029,CST-1368DR,5585,7809,15026,0.154,551
2021-01-26T02:11:49,42.805,6.029,CST-1368DR,5584,7811,15032,0.152,551
2021-01-26T02:14:51,42.805,6.029,CST-1368DR,5584,7811,15032,0.152,551
2021-01-26T02:17:52,42.805,6.029,CST-1368DR,5584,7810,15031,0.153,551
2021-01-26T02:20:54,42.805,6.029,CST-1368DR,5584,7811,15033,0.152,551
2021-01-26T02:23:55,42.805,6.029,CST-1368DR,5584,7811,15033,0.152,551
2021-01-26T02:26:57,42.805,6.029,CST-1368DR,5584,7810,15030,0.153,551
2021-01-26T02:29:59,42.805,6.029,CST-1368DR,5584,7811,15033,0.152,551
2021-01-26T02:33:00,42.805,6.029,CST-1368DR,5584,7811,15032,0.152,551
2021-01-26T02:36:02,42.805,6.029,CST-1368DR,5584,7811,15034,0.152,551
2021-01-26T02:39:03,42.805,6.029,CST-1368DR,5584,7811,15034,0.152,551
2021-01-26T02:42:05,42.805,6.029,CST-1368DR,5584,7811,15033,0.152,551
2021-01-26T02:45:06,42.805,6.029,CST-1368DR,5585,7811,15031,0.153,551
2021-01-26T02:48:08,42.805,6.029,CST-1368DR,5584,7811,15032,0.152,551
2021-01-26T02:51:10,42.805,6.029,CST-1368DR,5584,7810,15030,0.153,551
2021-01-26T02:54:11,42.805,6.029,CST-1368DR,5584,7811,15032,0.152,551
2021-01-26T02:57:13,42.805,6.029,CST-1368DR,5584,7810,15031,0.153,551
2021-01-26T03:00:14,42.805,6.029,CST-1368DR,5584,7811,15033,0.152,551
2021-01-26T03:03:16,42.805,6.029,CST-1368DR,5584,7810,15031,0.153,551
2021-01-26T03:06:17,42.805,6.029,CST-1368DR,5584,7805,15022,0.155,551
2021-01-26T03:09:19,42.805,6.029,CST-1368DR,5585,7811,15031,0.153,551
2021-01-26T03:12:21,42.805,6.029,CST-1368DR,5585,7811,15031,0.153,551
2021-01-26T03:15:22,42.805,6.029,CST-1368DR,5584,7808,15027,0.154,551
2021-01-26T03:18:24,42.805,6.029,CST-1368DR,5584,7811,15033,0.152,551
2021-01-26T03:21:25,42.805,6.029,CST-1368DR,5584,7811,15032,0.152,550
2021-01-26T03:24:27,42.805,6.029,CST-1368DR,5584,7810,15031,0.153,551
2021-01-26T03:27:29,42.805,6.029,CST-1368DR,5584,7809,15028,0.154,551
2021-01-26T03:30:30,42.805,6.029,CST-1368DR,5584,7810,15031,0.153,551
2021-01-26T03:33:32,42.805,6.029,CST-1368DR,5584,7810,15031,0.153,551
2021-01-26T03:36:33,42.805,6.029,CST-1368DR,5584,7811,15032,0.152,551
2021-01-26T03:39:35,42.805,6.029,CST-1368DR,5584,7811,15034,0.152,551
2021-01-26T03:42:36,42.805,6.029,CST-1368DR,5584,7811,15032,0.152,551
2021-01-26T03:45:38,42.805,6.029,CST-1368DR,5584,7811,15033,0.152,551
2021-01-26T03:48:40,42.805,6.029,CST-1368DR,5584,7810,15031,0.153,551
2021-01-26T03:51:41,42.805,6.029,CST-1368DR,5584,7811,15032,0.152,551
2021-01-26T03:54:43,42.805,6.029,CST-1368DR,5584,7811,15034,0.152,551
2021-01-26T03:57:44,42.805,6.029,CST-1368DR,5584,7811,15033,0.152,551
2021-01-26T04:00:46,42.805,6.029,CST-1368DR,5584,7808,15026,0.154,551
2021-01-26T04:03:48,42.805,6.029,CST-1368DR,5584,7810,15031,0.153,551
2021-01-26T04:06:49,42.805,6.029,CST-1368DR,5584,7809,15028,0.154,551
2021-01-26T04:09:51,42.805,6.029,CST-1368DR,5584,7811,15032,0.152,551
2021-01-26T04:12:52,42.805,6.029,CST-1368DR,5584,7810,15030,0.153,551
2021-01-26T04:15:54,42.805,6.029,CST-1368DR,5584,7810,15032,0.152,551
2021-01-26T04:18:55,42.805,6.029,CST-1368DR,5584,7811,15032,0.152,551
2021-01-26T04:21:57,42.805,6.029,CST-1368DR,5584,7811,15032,0.152,551
2021-01-26T04:24:59,42.805,6.029,CST-1368DR,5584,7811,15032,0.152,551
2021-01-26T04:28:00,42.805,6.029,CST-1368DR,5584,7810,15031,0.153,551
2021-01-26T04:31:02,42.805,6.029,CST-1368DR,5584,7810,15032,0.152,551
2021-01-26T04:34:03,42.805,6.029,CST-1368DR,5584,7811,15032,0.152,551
2021-01-26T04:37:05,42.805,6.029,CST-1368DR,5584,7810,15030,0.153,551
2021-01-26T04:40:06,42.805,6.029,CST-1368DR,5584,7809,15030,0.153,551
2021-01-26T04:43:08,42.805,6.029,CST-1368DR,5584,7808,15027,0.154,551
2021-01-26T04:46:10,42.805,6.029,CST-1368DR,5584,7809,15029,0.153,551
2021-01-26T04:49:11,42.805,6.029,CST-1368DR,5584,7810,15031,0.153,551
2021-01-26T04:52:13,42.805,6.029,CST-1368DR,5584,7810,15031,0.153,551
2021-01-26T04:55:14,42.805,6.029,CST-1368DR,5584,7811,15033,0.152,551
2021-01-26T04:58:16,42.805,6.029,CST-1368DR,5584,7811,15032,0.152,551
2021-01-26T05:01:18,42.805,6.029,CST-1368DR,5584,7810,15031,0.153,550
2021-01-26T05:04:19,42.805,6.029,CST-1368DR,5584,7810,15030,0.153,551
2021-01-26T05:07:21,42.805,6.029,CST-1368DR,5584,7810,15030,0.153,551
2021-01-26T05:10:22,42.805,6.029,CST-1368DR,5584,7810,15031,0.153,551
2021-01-26T05:13:24,42.805,6.029,CST-1368DR,5584,7810,15031,0.153,551
2021-01-26T05:16:25,42.805,6.029,CST-1368DR,5584,7810,15031,0.153,551
2021-01-26T05:19:27,42.805,6.029,CST-1368DR,5584,7811,15032,0.152,551
2021-01-26T05:22:29,42.805,6.029,CST-1368DR,5584,7811,15033,0.152,551
2021-01-26T05:25:30,42.805,6.029,CST-1368DR,5584,7811,15033,0.152,551
2021-01-26T05:28:32,42.805,6.029,CST-1368DR,5584,7810,15030,0.153,551
2021-01-26T05:31:33,42.805,6.029,CST-1368DR,5584,7810,15031,0.153,551
2021-01-26T05:34:35,42.805,6.029,CST-1368DR,5584,7811,15032,0.152,551
2021-01-26T05:37:37,42.805,6.029,CST-1368DR,5584,7810,15031,0.153,551
2021-01-26T05:40:38,42.805,6.029,CST-1368DR,5584,7811,15032,0.152,551
2021-01-26T05:43:40,42.805,6.029,CST-1368DR,5584,7810,15031,0.153,551
2021-01-26T05:46:41,42.805,6.029,CST-1368DR,5584,7810,15032,0.152,551
2021-01-26T05:49:43,42.805,6.029,CST-1368DR,5584,7810,15031,0.153,551
2021-01-26T05:52:44,42.805,6.029,CST-1368DR,5584,7810,15031,0.153,551
2021-01-26T05:55:46,42.805,6.029,CST-1368DR,5584,7811,15032,0.152,551
2021-01-26T05:58:48,42.805,6.029,CST-1368DR,5584,7810,15031,0.153,551
2021-01-26T06:01:49,42.805,6.029,CST-1368DR,5584,7810,15030,0.153,551
2021-01-26T06:04:51,42.805,6.029,CST-1368DR,5584,7810,15031,0.153,551
2021-01-26T06:07:52,42.805,6.029,CST-1368DR,5584,7810,15031,0.153,551
2021-01-26T06:10:54,42.805,6.029,CST-1368DR,5584,7810,15032,0.152,551
2021-01-26T06:13:55,42.805,6.029,CST-1368DR,5584,7810,15031,0.153,551
2021-01-26T06:16:57,42.805,6.029,CST-1368DR,5584,7810,15032,0.152,551
2021-01-26T06:19:59,42.805,6.029,CST-1368DR,5584,7810,15031,0.153,551
2021-01-26T06:23:00,42.805,6.029,CST-1368DR,5584,7810,15030,0.153,551
2021-01-26T06:26:02,42.805,6.029,CST-1368DR,5584,7810,15031,0.153,551
2021-01-26T06:29:03,42.805,6.029,CST-1368DR,5584,7811,15032,0.152,551
2021-01-26T06:32:05,42.805,6.029,CST-1368DR,5584,7810,15031,0.153,551
2021-01-26T06:35:07,42.805,6.029,CST-1368DR,5584,7810,15031,0.153,551
2021-01-26T06:38:08,42.805,6.029,CST-1368DR,5584,7810,15030,0.153,551
2021-01-26T06:41:10,42.805,6.029,CST-1368DR,5584,7810,15032,0.152,551
2021-01-26T06:44:11,42.805,6.029,CST-1368DR,5584,7809,15030,0.153,551
2021-01-26T06:47:13,42.805,6.029,CST-1368DR,5584,7810,15030,0.153,551
2021-01-26T06:50:14,42.805,6.029,CST-1368DR,5584,7810,15032,0.152,551
2021-01-26T06:53:16,42.805,6.029,CST-1368DR,5584,7810,15030,0.153,551
2021-01-26T06:56:18,42.805,6.029,CST-1368DR,5584,7810,15030,0.153,551
2021-01-26T06:59:19,42.805,6.029,CST-1368DR,5584,7810,15031,0.153,551
2021-01-26T07:02:21,42.805,6.029,CST-1368DR,5584,7811,15032,0.152,551
2021-01-26T07:05:22,42.805,6.029,CST-1368DR,5584,7810,15031,0.153,551
2021-01-26T07:08:24,42.805,6.029,CST-1368DR,5584,7810,15032,0.152,551
2021-01-26T07:11:25,42.805,6.029,CST-1368DR,5584,7808,15028,0.154,551
2021-01-26T07:14:27,42.805,6.029,CST-1368DR,5584,7810,15031,0.153,551
2021-01-26T07:17:29,42.805,6.029,CST-1368DR,5584,7811,15032,0.152,551
2021-01-26T07:20:30,42.805,6.029,CST-1368DR,5584,7810,15031,0.153,551
2021-01-26T07:23:32,42.805,6.029,CST-1368DR,5584,7811,15032,0.152,551
2021-01-26T07:26:33,42.805,6.029,CST-1368DR,5584,7810,15032,0.152,551
2021-01-26T07:29:35,42.805,6.029,CST-1368DR,5584,7811,15032,0.152,551
2021-01-26T07:32:37,42.805,6.029,CST-1368DR,5584,7810,15032,0.152,551
2021-01-26T07:35:38,42.805,6.029,CST-1368DR,5584,7810,15031,0.153,551
2021-01-26T07:38:40,42.805,6.029,CST-1368DR,5584,7811,15032,0.152,551
2021-01-26T07:41:41,42.805,6.029,CST-1368DR,5584,7810,15031,0.153,551
2021-01-26T07:44:43,42.805,6.029,CST-1368DR,5584,7809,15030,0.153,551
2021-01-26T07:47:44,42.805,6.029,CST-1368DR,5584,7810,15031,0.153,551
2021-01-26T07:50:46,42.805,6.029,CST-1368DR,5584,7810,15031,0.153,551
2021-01-26T07:53:48,42.805,6.029,CST-1368DR,5584,7811,15032,0.152,551
2021-01-26T07:56:49,42.805,6.029,CST-1368DR,5584,7810,15030,0.153,551
2021-01-26T07:59:51,42.805,6.029,CST-1368DR,5584,7811,15033,0.152,551
2021-01-26T08:02:52,42.805,6.029,CST-1368DR,5584,7810,15032,0.152,551
2021-01-26T08:05:54,42.805,6.029,CST-1368DR,5584,7809,15029,0.153,551
2021-01-26T08:08:56,42.805,6.029,CST-1368DR,5584,7810,15031,0.153,551
2021-01-26T08:11:57,42.805,6.029,CST-1368DR,5584,7811,15033,0.152,551
2021-01-26T08:14:59,42.805,6.029,CST-1368DR,5584,7810,15031,0.153,551
2021-01-26T08:18:00,42.805,6.029,CST-1368DR,5584,7810,15031,0.153,551
2021-01-26T08:21:02,42.805,6.029,CST-1368DR,5584,7811,15033,0.152,551
2021-01-26T08:24:03,42.805,6.029,CST-1368DR,5584,7811,15032,0.152,551
2021-01-26T08:27:05,42.805,6.029,CST-1368DR,5584,7810,15031,0.153,551
2021-01-26T08:30:07,42.805,6.029,CST-1368DR,5584,7811,15033,0.152,551
2021-01-26T08:33:08,42.805,6.029,CST-1368DR,5584,7810,15031,0.153,551
2021-01-26T08:36:10,42.805,6.029,CST-1368DR,5584,7810,15031,0.153,551
2021-01-26T08:39:11,42.805,6.029,CST-1368DR,5584,7810,15031,0.153,551
2021-01-26T08:42:13,42.805,6.029,CST-1368DR,5584,7811,15034,0.152,551
2021-01-26T08:45:14,42.805,6.029,CST-1368DR,5584,7811,15034,0.152,551
2021-01-26T08:48:16,42.805,6.029,CST-1368DR,5584,7811,15033,0.152,551
2021-01-26T08:51:18,42.805,6.029,CST-1368DR,5584,7811,15032,0.152,551
2021-01-26T08:54:19,42.805,6.029,CST-1368DR,5584,7811,15033,0.152,551
2021-01-26T08:57:21,42.805,6.029,CST-1368DR,5584,7809,15030,0.153,551
2021-01-26T09:00:22,42.805,6.029,CST-1368DR,5584,7811,15034,0.152,551
2021-01-26T09:03:24,42.805,6.029,CST-1368DR,5584,7811,15033,0.152,551
2021-01-26T09:06:26,42.805,6.029,CST-1368DR,5584,7811,15033,0.152,551
2021-01-26T09:09:27,42.805,6.029,CST-1368DR,5584,7811,15032,0.152,551
2021-01-26T09:12:29,42.805,6.029,CST-1368DR,5584,7811,15032,0.152,551
2021-01-26T09:15:30,42.805,6.029,CST-1368DR,5584,7811,15032,0.152,551
2021-01-26T09:18:32,42.805,6.029,CST-1368DR,5584,7811,15033,0.152,551
2021-01-26T09:21:33,42.805,6.029,CST-1368DR,5584,7809,15028,0.154,551
2021-01-26T09:24:35,42.805,6.029,CST-1368DR,5584,7810,15032,0.152,551
2021-01-26T09:27:37,42.805,6.029,CST-1368DR,5584,7811,15033,0.152,551
2021-01-26T09:30:38,42.805,6.029,CST-1368DR,5584,7810,15032,0.152,551
2021-01-26T09:33:40,42.805,6.029,CST-1368DR,5584,7811,15032,0.152,551
2021-01-26T09:36:41,42.805,6.029,CST-1368DR,5584,7811,15033,0.152,551
2021-01-26T09:39:43,42.805,6.029,CST-1368DR,5584,7811,15033,0.152,551
2021-01-26T09:42:45,42.805,6.029,CST-1368DR,5584,7810,15032,0.152,551
2021-01-26T09:45:46,42.805,6.029,CST-1368DR,5584,7811,15034,0.152,551
2021-01-26T09:48:48,42.805,6.029,CST-1368DR,5584,7811,15034,0.152,550
2021-01-26T09:51:49,42.805,6.029,CST-1368DR,5584,7812,15034,0.152,551
2021-01-26T09:54:51,42.805,6.029,CST-1368DR,5584,7811,15032,0.152,551
2021-01-26T09:57:52,42.805,6.029,CST-1368DR,5584,7810,15032,0.152,551
2021-01-26T10:00:54,42.805,6.029,CST-1368DR,5584,7812,15034,0.152,551
2021-01-26T10:03:56,42.805,6.029,CST-1368DR,5584,7811,15033,0.152,551
2021-01-26T10:06:57,42.805,6.029,CST-1368DR,5584,7811,15034,0.152,551
2021-01-26T10:09:59,42.805,6.029,CST-1368DR,5584,7811,15034,0.152,551
2021-01-26T10:13:00,42.805,6.029,CST-1368DR,5584,7810,15032,0.152,551
2021-01-26T10:16:02,42.805,6.029,CST-1368DR,5584,7810,15031,0.153,551
2021-01-26T10:19:03,42.805,6.029,CST-1368DR,5584,7811,15034,0.152,551
2021-01-26T10:22:05,42.805,6.029,CST-1368DR,5584,7810,15031,0.153,551
2021-01-26T10:25:07,42.805,6.029,CST-1368DR,5584,7810,15031,0.153,551
2021-01-26T10:28:08,42.805,6.029,CST-1368DR,5584,7811,15032,0.152,551
2021-01-26T10:31:10,42.805,6.029,CST-1368DR,5584,7811,15034,0.152,551
2021-01-26T10:34:11,42.805,6.029,CST-1368DR,5584,7811,15032,0.152,551
2021-01-26T10:37:13,42.805,6.029,CST-1368DR,5584,7811,15033,0.152,551
2021-01-26T10:40:15,42.805,6.029,CST-1368DR,5584,7811,15033,0.152,551
2021-01-26T10:43:16,42.805,6.029,CST-1368DR,5584,7811,15033,0.152,551
2021-01-26T10:46:18,42.805,6.029,CST-1368DR,5584,7810,15032,0.152,551
2021-01-26T10:49:19,42.805,6.029,CST-1368DR,5584,7810,15032,0.152,551
2021-01-26T10:52:21,42.805,6.029,CST-1368DR,5584,7810,15031,0.153,551
2021-01-26T10:55:22,42.805,6.029,CST-1368DR,5584,7811,15033,0.152,551
2021-01-26T10:58:24,42.805,6.029,CST-1368DR,5584,7809,15030,0.153,551
2021-01-26T11:01:26,42.805,6.029,CST-1368DR,5584,7809,15030,0.153,551
2021-01-26T11:04:27,42.805,6.029,CST-1368DR,5584,7811,15032,0.152,551
2021-01-26T11:07:29,42.805,6.029,CST-1368DR,5584,7811,15033,0.152,551
2021-01-26T11:10:30,42.805,6.029,CST-1368DR,5584,7811,15032,0.152,551
2021-01-26T11:13:32,42.805,6.029,CST-1368DR,5584,7810,15032,0.152,551
2021-01-26T11:16:34,42.805,6.029,CST-1368DR,5584,7809,15030,0.153,551
2021-01-26T11:19:35,42.805,6.029,CST-1368DR,5584,7809,15029,0.153,551
2021-01-26T11:22:37,42.805,6.029,CST-1368DR,5584,7810,15031,0.153,551
2021-01-26T11:25:38,42.805,6.029,CST-1368DR,5584,7810,15031,0.153,551
2021-01-26T11:28:40,42.805,6.029,CST-1368DR,5584,7810,15032,0.152,551
2021-01-26T11:31:41,42.805,6.029,CST-1368DR,5584,7810,15030,0.153,551
2021-01-26T11:34:43,42.805,6.029,CST-1368DR,5584,7808,15027,0.154,551
2021-01-26T11:37:45,42.805,6.029,CST-1368DR,5584,7808,15028,0.154,551
2021-01-26T11:40:46,42.805,6.029,CST-1368DR,5584,7808,15026,0.154,551
2021-01-26T11:43:48,42.805,6.029,CST-1368DR,5584,7809,15030,0.153,551
2021-01-26T11:46:49,42.805,6.029,CST-1368DR,5583,7808,15030,0.153,551
2021-01-26T11:49:51,42.805,6.029,CST-1368DR,5584,7809,15028,0.154,551
2021-01-26T11:52:52,42.805,6.029,CST-1368DR,5584,7809,15029,0.153,551
2021-01-26T11:55:54,42.805,6.029,CST-1368DR,5584,7806,15023,0.155,551
2021-01-26T11:58:56,42.805,6.029,CST-1368DR,5584,7808,15027,0.154,551
2021-01-26T12:01:57,42.805,6.029,CST-1368DR,5583,7808,15030,0.153,551
2021-01-26T12:04:59,42.805,6.029,CST-1368DR,5584,7808,15026,0.154,551
2021-01-26T12:08:00,42.805,6.029,CST-1368DR,5584,7808,15028,0.154,551
2021-01-26T12:11:02,42.805,6.029,CST-1368DR,5584,7808,15027,0.154,551
2021-01-26T12:14:04,42.805,6.029,CST-1368DR,5584,7810,15030,0.153,551
2021-01-26T12:17:05,42.805,6.029,CST-1368DR,5584,7808,15026,0.154,551
2021-01-26T12:20:07,42.805,6.029,CST-1368DR,5584,7808,15027,0.154,551
2021-01-26T12:23:08,42.805,6.029,CST-1368DR,5584,7807,15026,0.154,551
2021-01-26T12:26:10,42.805,6.029,CST-1368DR,5584,7809,15029,0.153,551
2021-01-26T12:29:11,42.805,6.029,CST-1368DR,5584,7808,15026,0.154,551
2021-01-26T12:32:13,42.805,6.029,CST-1368DR,5584,7808,15028,0.154,551
2021-01-26T12:35:15,42.805,6.029,CST-1368DR,5584,7808,15027,0.154,551
2021-01-26T12:38:16,42.805,6.029,CST-1368DR,5584,7809,15028,0.154,551
2021-01-26T12:41:18,42.805,6.029,CST-1368DR,5584,7806,15024,0.155,551
2021-01-26T12:44:19,42.805,6.029,CST-1368DR,5584,7798,15008,0.159,551
2021-01-26T12:47:21,42.805,6.029,CST-1368DR,5584,7808,15028,0.154,551
2021-01-26T12:50:22,42.805,6.029,CST-1368DR,5584,7805,15022,0.155,551
2021-01-26T12:53:24,42.805,6.029,CST-1368DR,5584,7808,15027,0.154,550
2021-01-26T12:56:26,42.805,6.029,CST-1368DR,5584,7808,15026,0.154,551
2021-01-26T12:59:27,42.805,6.029,CST-1368DR,5584,7807,15025,0.154,551
2021-01-26T13:02:29,42.805,6.029,CST-1368DR,5584,7806,15023,0.155,551
2021-01-26T13:05:30,42.805,6.029,CST-1368DR,5584,7809,15028,0.154,551
2021-01-26T13:08:32,42.805,6.029,CST-1368DR,5584,7808,15028,0.154,551
2021-01-26T13:11:34,42.805,6.029,CST-1368DR,5584,7807,15025,0.154,551
2021-01-26T13:14:35,42.805,6.029,CST-1368DR,5583,7804,15021,0.155,551
2021-01-26T13:17:37,42.805,6.029,CST-1368DR,5584,7807,15025,0.154,551
2021-01-26T13:20:38,42.805,6.029,CST-1368DR,5584,7808,15026,0.154,551
2021-01-26T13:23:40,42.805,6.029,CST-1368DR,5584,7807,15026,0.154,551
2021-01-26T13:26:41,42.805,6.029,CST-1368DR,5583,7805,15024,0.155,551
2021-01-26T13:29:43,42.805,6.029,CST-1368DR,5583,7808,15030,0.153,551
2021-01-26T13:32:45,42.805,6.029,CST-1368DR,5583,7808,15029,0.153,551
2021-01-26T13:35:46,42.805,6.029,CST-1368DR,5583,7806,15025,0.154,551
2021-01-26T13:38:48,42.805,6.029,CST-1368DR,5583,7807,15028,0.154,551
2021-01-26T13:41:49,42.805,6.029,CST-1368DR,5583,7807,15028,0.154,551
2021-01-26T13:44:51,42.805,6.029,CST-1368DR,5583,7808,15029,0.153,551
2021-01-26T13:47:52,42.805,6.029,CST-1368DR,5583,7808,15029,0.153,551
2021-01-26T13:50:54,42.805,6.029,CST-1368DR,5583,7808,15029,0.153,551
2021-01-26T13:53:56,42.805,6.029,CST-1368DR,5583,7806,15026,0.154,551
2021-01-26T13:56:57,42.805,6.029,CST-1368DR,5583,7808,15029,0.153,551
2021-01-26T13:59:59,42.805,6.029,CST-1368DR,5584,7808,15026,0.154,551
2021-01-26T14:03:00,42.805,6.029,CST-1368DR,5584,7807,15026,0.154,551
2021-01-26T14:06:02,42.805,6.029,CST-1368DR,5583,7807,15027,0.154,551
2021-01-26T14:09:04,42.805,6.029,CST-1368DR,5583,7807,15028,0.154,551
2021-01-26T14:12:05,42.805,6.029,CST-1368DR,5583,7807,15027,0.154,551
2021-01-26T14:15:07,42.805,6.029,CST-1368DR,5583,7809,15031,0.153,551
2021-01-26T14:18:08,42.805,6.029,CST-1368DR,5583,7807,15027,0.154,551
2021-01-26T14:21:10,42.805,6.029,CST-1368DR,5583,7807,15028,0.154,551
2021-01-26T14:24:11,42.805,6.029,CST-1368DR,5583,7807,15028,0.154,551
2021-01-26T14:27:13,42.805,6.029,CST-1368DR,5583,7807,15027,0.154,551
2021-01-26T14:30:15,42.805,6.029,CST-1368DR,5583,7807,15027,0.154,551
2021-01-26T14:33:16,42.805,6.029,CST-1368DR,5583,7808,15029,0.153,551
2021-01-26T14:36:18,42.805,6.029,CST-1368DR,5583,7806,15026,0.154,551
2021-01-26T14:39:19,42.805,6.029,CST-1368DR,5583,7806,15026,0.154,551
2021-01-26T14:42:21,42.805,6.029,CST-1368DR,5583,7805,15025,0.154,551
2021-01-26T14:45:23,42.805,6.029,CST-1368DR,5583,7807,15027,0.154,550
2021-01-26T14:48:24,42.805,6.029,CST-1368DR,5583,7806,15025,0.154,551
2021-01-26T14:51:26,42.805,6.029,CST-1368DR,5583,7808,15029,0.153,551
2021-01-26T14:54:27,42.805,6.029,CST-1368DR,5583,7808,15030,0.153,551
2021-01-26T14:57:29,42.805,6.029,CST-1368DR,5583,7808,15029,0.153,551
2021-01-26T15:00:30,42.805,6.029,CST-1368DR,5583,7806,15027,0.154,551
2021-01-26T15:03:32,42.805,6.029,CST-1368DR,5583,7807,15028,0.154,551
2021-01-26T15:06:34,42.805,6.029,CST-1368DR,5583,7806,15026,0.154,551
2021-01-26T15:09:35,42.805,6.029,CST-1368DR,5583,7809,15031,0.153,551
2021-01-26T15:12:37,42.805,6.029,CST-1368DR,5583,7806,15026,0.154,551
2021-01-26T15:15:38,42.805,6.029,CST-1368DR,5583,7807,15027,0.154,551
2021-01-26T15:18:40,42.805,6.029,CST-1368DR,5583,7808,15029,0.153,551
2021-01-26T15:21:41,42.805,6.029,CST-1368DR,5583,7807,15028,0.154,551
2021-01-26T15:24:43,42.805,6.029,CST-1368DR,5583,7808,15030,0.153,551
2021-01-26T15:27:45,42.805,6.029,CST-1368DR,5583,7808,15029,0.153,551
2021-01-26T15:30:46,42.805,6.029,CST-1368DR,5583,7807,15027,0.154,551
2021-01-26T15:33:48,42.805,6.029,CST-1368DR,5583,7808,15030,0.153,551
2021-01-26T15:36:49,42.805,6.029,CST-1368DR,5583,7807,15028,0.154,551
2021-01-26T15:39:51,42.805,6.029,CST-1368DR,5583,7808,15029,0.153,551
2021-01-26T15:42:53,42.805,6.029,CST-1368DR,5583,7807,15028,0.154,551
2021-01-26T15:45:54,42.805,6.029,CST-1368DR,5583,7807,15027,0.154,551
2021-01-26T15:48:56,42.805,6.029,CST-1368DR,5583,7808,15029,0.153,551
2021-01-26T15:51:57,42.805,6.029,CST-1368DR,5583,7807,15028,0.154,551
2021-01-26T15:54:59,42.805,6.029,CST-1368DR,5583,7807,15028,0.154,551
2021-01-26T15:58:00,42.805,6.029,CST-1368DR,5583,7807,15028,0.154,551
2021-01-26T16:01:02,42.805,6.029,CST-1368DR,5583,7807,15028,0.154,551
2021-01-26T16:04:04,42.805,6.029,CST-1368DR,5583,7808,15029,0.153,551
2021-01-26T16:07:05,42.805,6.029,CST-1368DR,5583,7808,15029,0.153,551
2021-01-26T16:10:07,42.805,6.029,CST-1368DR,5583,7807,15027,0.154,551
2021-01-26T16:13:08,42.805,6.029,CST-1368DR,5583,7807,15028,0.154,551
2021-01-26T16:16:10,42.805,6.029,CST-1368DR,5583,7806,15026,0.154,551
2021-01-26T16:19:11,42.805,6.029,CST-1368DR,5583,7808,15029,0.153,551
2021-01-26T16:22:13,42.805,6.029,CST-1368DR,5583,7806,15026,0.154,551
2021-01-26T16:25:15,42.805,6.029,CST-1368DR,5583,7808,15029,0.153,551
2021-01-26T16:28:16,42.805,6.029,CST-1368DR,5583,7808,15029,0.153,551
2021-01-26T16:31:18,42.805,6.029,CST-1368DR,5583,7807,15027,0.154,551
2021-01-26T16:34:19,42.805,6.029,CST-1368DR,5583,7807,15028,0.154,551
2021-01-26T16:37:21,42.805,6.029,CST-1368DR,5583,7807,15028,0.154,551
2021-01-26T16:40:23,42.805,6.029,CST-1368DR,5583,7807,15027,0.154,551
2021-01-26T16:43:24,42.805,6.029,CST-1368DR,5583,7807,15028,0.154,551
2021-01-26T16:46:26,42.805,6.029,CST-1368DR,5583,7806,15026,0.154,551
2021-01-26T16:49:27,42.805,6.029,CST-1368DR,5583,7808,15029,0.153,551
2021-01-26T16:52:29,42.805,6.029,CST-1368DR,5583,7808,15029,0.153,551